This is the latest recevied weather packets stored in our database for station/object K1BES. If no packets are shown the sender has not sent any weather packets the latest 10 day(s).
| Time | Temp. | Humidity | Pressure | Rain* | Wind** | Luminosity | Snow |
|---|---|---|---|---|---|---|---|
| 1788184931 | 30.56° C | 75% | 1019.3 hPa | 0 mm | - | 557 W/m² | - |
| 1788184629 | 30.56° C | 76% | 1019.4 hPa | 0 mm | - | 546 W/m² | - |
| 1788184325 | 30.56° C | 75% | 1019.3 hPa | 0 mm | - | 530 W/m² | - |
| 1788184020 | 30.56° C | 76% | 1019.3 hPa | 0 mm | - | 513 W/m² | - |
| 1788183716 | 30° C | 79% | 1019.1 hPa | 0 mm | - | 482 W/m² | - |
| 1788183415 | 30° C | 80% | 1019.3 hPa | 0 mm | - | 491 W/m² | - |
| 1788183110 | 29.44° C | 82% | 1019.3 hPa | 0 mm | - | 465 W/m² | - |
| 1788182806 | 29.44° C | 80% | 1019.3 hPa | 0 mm | - | 298 W/m² | - |
| 1788182505 | 30° C | 79% | 1019.4 hPa | 0 mm | - | 207 W/m² | - |
| 1788182200 | 29.44° C | 79% | 1019.3 hPa | 0 mm | - | 69 W/m² | - |
| 1788181896 | 28.89° C | 82% | 1019.4 hPa | 0 mm | - | 176 W/m² | - |
| 1788181591 | 28.33° C | 83% | 1019.2 hPa | 0 mm | - | 120 W/m² | - |
| 1788181287 | 27.78° C | 85% | 1019.2 hPa | 0 mm | - | 117 W/m² | - |
| 1788180985 | 27.22° C | 88% | 1019.2 hPa | 0 mm | - | 71 W/m² | - |
| 1788180681 | 26.67° C | 91% | 1019.6 hPa | 0 mm | - | 88 W/m² | - |
| 1788180377 | 26.67° C | 93% | 1019.5 hPa | 0 mm | - | 82 W/m² | - |
| 1788180073 | 26.11° C | 95% | 1019.4 hPa | 0 mm | - | 65 W/m² | - |
| 1788179772 | 25.56° C | 97% | 1019.1 hPa | 0 mm | - | 51 W/m² | - |
| 1788179466 | 25° C | 97% | 1019.2 hPa | 0 mm | - | 53 W/m² | - |
| 1788179166 | 25° C | 98% | 1019 hPa | 0 mm | - | 56 W/m² | - |
| 1788178862 | 25° C | 98% | 1018.9 hPa | 0 mm | - | 51 W/m² | - |
| 1788178561 | 24.44° C | 98% | 1018.9 hPa | 0 mm | - | 42 W/m² | - |
| 1788178258 | 24.44° C | 98% | 1018.7 hPa | 0 mm | - | 39 W/m² | - |
| 1788177957 | 23.89° C | 98% | 1018.6 hPa | 0 mm | - | 36 W/m² | - |
| 1788177653 | 23.89° C | 98% | 1018.6 hPa | 0 mm | - | 33 W/m² | - |
* Rain latest hour (hover to see other rain measurements)
** Current wind speed in m/s (hover to see current wind gust speed)